Terug naar catalogus

SL-8 DEB

ActiefLEO
NORAD 21936·DEBRIS·🇷🇺 Russia

Gelanceerd Feb 12, 1991 vanaf Plesetsk Cosmodrome

Loading…

Volgende Passages (komende 24 uur)

TLE

VersSource: Space-Track

Epoch: Sep 14, 2026, 10:26 UTC

1 21936U 91009CD  26257.43497756 -.00000012  00000-0  46575-5 0  9993
2 21936  74.0641 314.0271 0261650  74.3866 302.0451 12.01231349519474

Volg SL-8 DEB in realtime met AllMySat

Download on the App Store